Location: Newark
(45.5000°N, 11.4167°E)
Time: 12:02:56
(UTC+00:00)

Transit 2A Rocket - Pass Details

Date: 30 August 2019
Orbit: 592 x 911 km, 66.7° (Epoch: 22 September)

Event Time Altitude Azimuth Distance (km) Brightness Sun altitude
Rises 01:03:59 0° 328° (NNW) 3,006 8.4 -30.1°
Reaches altitude 10° 01:06:23 10° 332° (NNW) 2,048 7.5 -29.9°
Enters shadow 01:08:33 27° 339° (NNW) 1,225 6.3 -29.7°
Maximum altitude 01:10:56 67° 54° (NE) 670 - -29.5°
Drops below altitude 10° 01:15:14 10° 138° (SE) 1,931 - -29.1°
Sets 01:17:26 0° 141° (SE) 2,819 - -28.8°
